Погода в Каташине

Россия / Брянская область     52°35′41″N   32°09′30″E
темп.,
°C
ветер,
м/с
пор.,
м/с
влажн.,
%
обл.,
%
осадки,
мм/ч
давл.,
гПа
погр.,
м
20 января, ср
ср2000:00−17з229514 0.0 102120
03:00−17зюз23957 0.0 102234
06:00−17юз129627 0.0 102220
09:00−17ююз239414 0.0 102326
12:00−14ю34890 0.0 1024243
15:00−12ю36870 0.0 1023325
18:00−14ююв47910 0.0 1024139
21:00−14ююв5109115 0.0 1023230
21 января, чт
чт2100:00−13ю6139159 0.0 1022289
03:00−12ю7149169 0.0 1021361
06:00−10ю71393100 0.1 1019414
09:00−9ююз71494100 0.9 1017449
12:00−5ююз81494100 1.3 1016459
15:00−2юз71393100 1.4 1015492
18:00−3ююз6129497 0.0 1015334
21:00−4ююз5119579 0.0 1016262
22 января, пт
пт2200:00−5ююз5119634 0.0 1015241
03:00−5ю5119529 0.0 1015230
06:00−3ю6109488 0.0 1014255
09:00−3ю6119592 0.0 1013291
12:00−2ю61193100 0.0 1012310
15:000ю6119297 0.0 1011418
18:00−1ю6129384 0.0 1010318
21:00−1ю6139180 0.0 1010310
23 января, сб
сб2300:00−2ю6129151 0.0 1010275
03:00−2ю6129469 0.0 1010272
06:00−2ю6129399 0.0 1009310
09:00−1ю6119798 0.0 1010342
12:00+1ю51099100 0.0 1009332
15:00+1ю610100100 0.0 1009352
18:00+1ю61097100 0.0 1009397
21:00+2ю51298100 0.0 1009362
24 января, вс
вс2400:00+2ю61398100 0.0 1008394
03:00+2ююв71398100 0.0 1007431
06:00+3ююв71498100 0.0 1005442
09:00+4ююв71599100 0.0 1005400
12:00+4ююв81697100 0.7 1004497
15:00+4ююв81894100 1.4 1002592
18:00+4ююв81894100 1.0 1001613
21:00+4ююв81694100 2.3 1002534